Station PGBP7 - 1631428 - Pago Bay, Guam Image indicating link to RSS feed of recent meteorological observations for station PGBP7


Conditions at PGBP7 as of
0430 GMT on 06/17/2024:
     

Click on the graph icon in the table below to see a time series plot of the last five days of that observation.

5-day plot - Wind Direction Wind Direction (WDIR): E ( 80 deg true )
5-day plot - Wind Speed Wind Speed (WSPD): 8.0 kts
5-day plot - Wind Gust Wind Gust (GST): 13.0 kts
5-day plot - Wind Speed at 10 Meters Wind Speed at 10 meters (WSPD10M): 7.8 kts
5-day plot - Wind Speed at 20 Meters Wind Speed at 20 meters (WSPD20M): 7.8 kts
5-day plot -  Wind Speed, Wind Gust and Atmospheric Pressure Combined plot of Wind Speed, Gust, and Air Pressure
NOS Water Level Observation Network Water Level
Previous observations
TIME
(GMT)
5-day plot - Wind Direction
WDIR
 
5-day plot - Wind Speed
WSPD
kts
5-day plot - Wind Gust
GST
kts
5-day plot - Wave Height
WVHT
ft
5-day plot - Dominant Wave Period
DPD
sec
5-day plot - Average Wave Period
APD
sec
5-day plot - Mean Wave Direction
MWD
 
5-day plot - Atmospheric Pressure
PRES
in
5-day plot - Pressure Tendency
PTDY
in
5-day plot - Air Temperature
ATMP
°F
5-day plot - Water Temperature
WTMP
°F
5-day plot - Dew Point
DEWP
°F
5-day plot - Salinity
SAL
psu
5-day plot - Visibility
VIS
nmi
5-day plot - Tide (above MLLW)
TIDE
ft
2024-06-17 0424ENE 5.1 11.1------------
2024-06-17 0418ENE 8.0 13.0------------
2024-06-17 0412 E 7.0 18.1------------
2024-06-17 0406 E 7.0 11.1------------
2024-06-17 0400 E 4.1 13.0------------
2024-06-17 0354 E 6.0 14.0------------
2024-06-17 0348 E 4.1 14.0------------
2024-06-17 0342 E 8.0 13.0------------
2024-06-17 0336ENE 7.0 12.0------------
2024-06-17 0330 E 8.0 12.0------------
2024-06-17 0324ENE 7.0 18.1------------
2024-06-17 0318 NE 8.0 13.0------------
2024-06-17 0312 E 6.0 15.0------------
2024-06-17 0306 E 6.0 12.0------------
2024-06-17 0300 E 8.0 15.9------------
2024-06-17 0254 E 7.0 14.0------------
2024-06-17 0248 E 5.1 15.9------------
2024-06-17 0242 NE 6.0 12.0------------
2024-06-17 0236ENE 5.1 13.0------------
2024-06-17 0230 E 7.0 12.0------------
2024-06-17 0224 E 7.0 14.0------------
2024-06-17 0218ENE 5.1 13.0------------
2024-06-17 0212 E 6.0 13.0------------
2024-06-17 0206 E 8.0 14.0------------
2024-06-17 0200 E 4.1 12.0------------
2024-06-17 0154 E 6.0 14.0------------
2024-06-17 0148 E 6.0 12.0------------
2024-06-17 0142 E 6.0 14.0------------
2024-06-17 0136 E 6.0 13.0------------
2024-06-17 0130 E 5.1 12.0------------
2024-06-17 0124 E 5.1 14.0------------
2024-06-17 0118 E 8.0 12.0------------
2024-06-17 0112 E 6.0 14.0------------
2024-06-17 0106 E 6.0 15.0------------
2024-06-17 0100 E 4.1 12.0------------
2024-06-17 0054 E 5.1 12.0------------
2024-06-17 0048 E 6.0 13.0------------
2024-06-17 0042 E 6.0 13.0------------
2024-06-17 0036 E 4.1 13.0------------
2024-06-17 0030ENE 7.0 12.0------------
2024-06-17 0024 E 4.1 13.0------------
2024-06-17 0018ENE 7.0 13.0------------
2024-06-17 0012ESE 2.9 11.1------------
2024-06-17 0006ENE 7.0 14.0------------
2024-06-17 0000 E 5.1 12.0------------
2024-06-16 2354ENE 6.0 12.0------------
2024-06-16 2348 E 8.0 14.0------------
2024-06-16 2342 E 7.0 13.0------------
2024-06-16 2336ESE 4.1 12.0------------
2024-06-16 2330 E 4.1 13.0------------
2024-06-16 2324 E 5.1 13.0------------
2024-06-16 2318 E 5.1 12.0------------
2024-06-16 2312ENE 8.0 12.0------------
2024-06-16 2306 E 5.1 9.9------------
2024-06-16 2300 E 6.0 11.1------------
2024-06-16 2254ENE 7.0 15.0------------
2024-06-16 2248 E 4.1 14.0------------
2024-06-16 2242ENE 5.1 12.0------------
2024-06-16 2236 E 4.1 11.1------------
2024-06-16 2230ENE 5.1 11.1------------
2024-06-16 2224 E 5.1 11.1------------
2024-06-16 2218 E 6.0 9.9------------
2024-06-16 2212ENE 5.1 12.0------------
2024-06-16 2206 E 4.1 12.0------------
2024-06-16 2200ENE 7.0 11.1------------
2024-06-16 2154 E 8.0 11.1------------
2024-06-16 2148 E 5.1 12.0------------
2024-06-16 2142 E 5.1 9.9------------
2024-06-16 2136 E 4.1 8.0------------
2024-06-16 2130 E 6.0 11.1------------
2024-06-16 2124 E 5.1 11.1------------
2024-06-16 2118 E 5.1 7.0------------
2024-06-16 2112 E 5.1 8.9------------
2024-06-16 2106 E 2.9 8.0------------
2024-06-16 2100ENE 5.1 11.1------------
2024-06-16 2054 E 5.1 11.1------------
2024-06-16 2048 E 6.0 11.1------------
2024-06-16 2042ENE 7.0 13.0------------
2024-06-16 2036 E 7.0 12.0------------
2024-06-16 2030ENE 5.1 9.9------------
2024-06-16 2024ENE 5.1 8.0------------
2024-06-16 2018ENE 6.0 9.9------------
2024-06-16 2012ENE 7.0 9.9------------
2024-06-16 2006 E 6.0 14.0------------
2024-06-16 2000 E 4.1 8.9------------
2024-06-16 1954ENE 5.1 15.9------------
2024-06-16 1948ENE 5.1 9.9------------
2024-06-16 1942 E 5.1 9.9------------
2024-06-16 1936 E 4.1 9.9------------
2024-06-16 1930ESE 2.9 12.0------------
2024-06-16 1924ESE 6.0 12.0------------
2024-06-16 1918 E 5.1 8.9------------
2024-06-16 1912 E 4.1 13.0------------
2024-06-16 1906ENE 7.0 14.0------------
2024-06-16 1900 E 6.0 9.9------------
2024-06-16 1854ENE 4.1 8.9------------
2024-06-16 1848ENE 5.1 14.0------------
2024-06-16 1842 E 5.1 11.1------------
2024-06-16 1836 E 6.0 11.1------------
2024-06-16 1830 E 4.1 8.9------------
2024-06-16 1824ENE 5.1 9.9------------
2024-06-16 1818 E 4.1 9.9------------
2024-06-16 1812ENE 5.1 11.1------------
2024-06-16 1806 E 5.1 11.1------------
2024-06-16 1800 E 6.0 13.0------------
2024-06-16 1754ENE 5.1 12.0------------
2024-06-16 1748 E 7.0 14.0------------
2024-06-16 1742ENE 5.1 11.1------------
2024-06-16 1736 E 5.1 8.9------------
2024-06-16 1730ENE 4.1 8.0------------
2024-06-16 1724 NE 4.1 8.9------------
2024-06-16 1718 E 4.1 11.1------------
2024-06-16 1712ENE 6.0 12.0------------
2024-06-16 1706ENE 6.0 12.0------------
2024-06-16 1700 E 5.1 11.1------------
2024-06-16 1654ENE 5.1 11.1------------
2024-06-16 1648 E 6.0 11.1------------
2024-06-16 1642 E 5.1 11.1------------
2024-06-16 1636 E 6.0 13.0------------
2024-06-16 1630ENE 5.1 9.9------------
2024-06-16 1624 E 2.9 11.1------------
2024-06-16 1618 E 5.1 12.0------------
2024-06-16 1612 E 7.0 13.0------------
2024-06-16 1606 E 6.0 13.0------------
2024-06-16 1600 E 4.1 11.1------------
2024-06-16 1554ENE 4.1 8.0------------
2024-06-16 1548 E 4.1 7.0------------
2024-06-16 1542 E 4.1 12.0------------
2024-06-16 1536ENE 5.1 11.1------------
2024-06-16 1530ENE 5.1 9.9------------
2024-06-16 1524ESE 1.9 8.0------------
2024-06-16 1518 E 1.9 8.0------------
2024-06-16 1512 E 4.1 11.1------------
2024-06-16 1506ESE 4.1 7.0------------
2024-06-16 1500ENE 4.1 9.9------------
2024-06-16 1454ENE 5.1 9.9------------
2024-06-16 1448 E 4.1 7.0------------
2024-06-16 1442ESE 4.1 8.9------------
2024-06-16 1436 E 2.9 8.0------------
2024-06-16 1430 E 1.9 8.9------------
2024-06-16 1424 E 4.1 9.9------------
2024-06-16 1418ENE 4.1 8.0------------
2024-06-16 1412ESE 4.1 8.9------------
2024-06-16 1406 E 5.1 12.0------------
2024-06-16 1400ENE 6.0 12.0------------
2024-06-16 1354ENE 8.0 14.0------------
2024-06-16 1348ENE 6.0 12.0------------
2024-06-16 1342ENE 6.0 13.0------------
2024-06-16 1336 E 4.1 9.9------------
2024-06-16 1330ENE 6.0 11.1------------
2024-06-16 1324 E 2.9 8.9------------
2024-06-16 1318 E 5.1 9.9------------
2024-06-16 1312ENE 5.1 8.0------------
2024-06-16 1306 E 4.1 8.9------------
2024-06-16 1300 E 4.1 8.9------------
2024-06-16 1254 E 4.1 8.0------------
2024-06-16 1248 E 5.1 8.0------------
2024-06-16 1242 E 4.1 8.0------------
2024-06-16 1236ENE 4.1 8.9------------
2024-06-16 1230 NE 2.9 8.0------------
2024-06-16 1224 E 4.1 8.0------------
2024-06-16 1218 E 2.9 8.0------------
2024-06-16 1212 E 2.9 9.9------------
2024-06-16 1206ENE 6.0 9.9------------
2024-06-16 1200ENE 6.0 9.9------------
2024-06-16 1154ENE 6.0 11.1------------
2024-06-16 1148 E 4.1 8.0------------
2024-06-16 1142 E 2.9 9.9------------
2024-06-16 1136ENE 5.1 12.0------------
2024-06-16 1130 E 5.1 11.1------------
2024-06-16 1124 E 5.1 9.9------------
2024-06-16 1118ENE 5.1 11.1------------
2024-06-16 1112 E 2.9 11.1------------
2024-06-16 1106ESE 4.1 7.0------------
2024-06-16 1100 E 4.1 11.1------------
2024-06-16 1054ENE 5.1 11.1------------
2024-06-16 1048 E 4.1 8.9------------
2024-06-16 1042ENE 5.1 11.1------------
2024-06-16 1036 E 2.9 9.9------------
2024-06-16 1030ENE 2.9 8.9------------
2024-06-16 1024 E 5.1 9.9------------
2024-06-16 1018ENE 2.9 5.1------------
2024-06-16 1012 E 4.1 8.9------------
2024-06-16 1006ENE 5.1 8.0------------
2024-06-16 1000ENE 4.1 8.0------------
2024-06-16 0954ENE 6.0 9.9------------
2024-06-16 0948ESE 2.9 8.0------------
2024-06-16 0942 E 5.1 11.1------------
2024-06-16 0936ENE 5.1 8.9------------
2024-06-16 0930ENE 5.1 11.1------------
2024-06-16 0924 E 4.1 8.9------------
2024-06-16 0918ENE 5.1 8.9------------
2024-06-16 0912ENE 5.1 8.0------------
2024-06-16 0906ESE 2.9 8.0------------
2024-06-16 0900ENE 4.1 7.0------------
2024-06-16 0854ENE 4.1 11.1------------
2024-06-16 0848ENE 5.1 8.0------------
2024-06-16 0842ENE 5.1 12.0------------
2024-06-16 0836ENE 5.1 8.9------------
2024-06-16 0830 E 2.9 11.1------------
2024-06-16 0824ENE 4.1 8.9------------
2024-06-16 0818ENE 5.1 9.9------------
2024-06-16 0812 E 4.1 9.9------------
2024-06-16 0806ENE 5.1 9.9------------
2024-06-16 0800ENE 4.1 9.9------------
2024-06-16 0754 E 4.1 8.0------------
2024-06-16 0748 E 1.9 8.0------------
2024-06-16 0742 E 4.1 8.0------------
2024-06-16 0736ENE 6.0 11.1------------
2024-06-16 0730ENE 4.1 9.9------------
2024-06-16 0724 E 5.1 8.9------------
2024-06-16 0718 E 5.1 7.0------------
2024-06-16 0712 E 4.1 9.9------------
2024-06-16 0706ESE 2.9 7.0------------
2024-06-16 0700ENE 6.0 9.9------------
2024-06-16 0654ESE 4.1 8.0------------
2024-06-16 0648 E 4.1 8.9------------
2024-06-16 0642 E 4.1 7.0------------
2024-06-16 0636 E 6.0 11.1------------
2024-06-16 0630ESE 2.9 6.0------------
2024-06-16 0624 E 2.9 7.0------------
2024-06-16 0618 E 4.1 9.9------------
2024-06-16 0612ESE 1.9 9.9------------
2024-06-16 0606 E 2.9 8.9------------
2024-06-16 0600 E 2.9 8.0------------
2024-06-16 0554ESE 2.9 11.1------------
2024-06-16 0548 E 6.0 13.0------------
2024-06-16 0542 E 5.1 8.9------------
2024-06-16 0536 E 4.1 9.9------------
2024-06-16 0530 E 4.1 8.9------------
2024-06-16 0524 E 2.9 8.9------------
2024-06-16 0518ENE 6.0 11.1------------
2024-06-16 0512 E 4.1 9.9------------
2024-06-16 0506ESE 5.1 9.9------------
2024-06-16 0500 E 5.1 12.0------------
2024-06-16 0454 E 6.0 12.0------------